FENGYUN 1C DEB

Satellite information

Favourite Embed

Satellite Type and Status

DEBRISIN ORBIT

Key statistics

Satellite FENGYUN 1C DEB at a glance.

Uptime

9715

Days in orbit

Revolutions

≈ 13.4

Per day

Orbit

SSO

Sun Synchronous Orbit

Inclination

102.8

Latest

Satellite identification and parameters

Extended collection of information and parameters for FENGYUN 1C DEB.

Object identification

Identified? True

Debris? True

Object name: FENGYUN 1C DEB

International designator: 1999-025CTR

Object number (NORAD): 32171

Object ID (CCSDS): 32171

Country: PEOPLES REPUBLIC OF CHINA (PRC)

Current information (Y/N): Y

RCS size: SMALL

Orbital parameters

Period: 107.26 minutes

Inclination: 102.8034 deg

SMA: 7477.982 km

Apoapsis: 1465.198 km

Periapsis: 734.496 km

RAAN: 241.5025 deg

Eccentricy: 0.0488569

Argument of periapsis: 9.7691 deg

Mean anomaly: 7.7645 deg

Mean motion: 13.425366 rev/day

Mean motion (dot): 0.00007529 rev/day2

B* drag term: 0.0065755 1/REarth

Two-line elements (TLE)

Creation date: Dec. 11, 2025, 7:46 a.m.

Reference frame: TEME

Reference center: EARTH

Epoch: Dec. 10, 2025, 11:20 p.m. UTC

TLE line 0: 0 FENGYUN 1C DEB

TLE line 1: 1 32171U 99025CTR 25344.97225243 .00007529 00000-0 65755-2 0 9994

TLE line 2: 2 32171 102.8034 241.5025 0488569 9.7691 7.7645 13.42536600605926

Live tracking on map

Real-time ground track for satellite FENGYUN 1C DEB.

In-orbit conjunctions

A list of the most updated potential collisions computed for object FENGYUN 1C DEB.

Target Orbit TCA Probability of collision Miss distance Type
NADEZHDA 1 LEO 2025-06-14 23:15:18 0.0001961194 465.0 (m) PAYLOAD
COSMOS 2188 LEO 2025-05-18 00:42:47 0.0004813694 411.0 (m) PAYLOAD

Associated space launch

Chinese polar orbiting meteorological satellite

FENGYUN 1C DEB was lifted into orbit during the mission ‘Long March 4B | Feng Yun 1C’, on board a Long March 4B space rocket.

The launch took place on May 10, 1999, 1:33 a.m. from Launch Complex 7.

For more information about the launch, click the button.

Launch to space Long March 4B | Feng Yun 1C
Long March 4B | Feng Yun 1C

Agency: N/A

Status: Launch Successful

Launch date: May 10, 1999, 1:33 a.m. UTC

Rocket: Long March 4B

Launch pad: Launch Complex 7

Location: Taiyuan Satellite Launch Center, People's Republic of China

...

Latest news about this satellite

There are no fresh news available about this satellite. Check back as we update our databases every day.


Newsletter sign-up

Weekly statistics, charts and insights to help you stay on top of the space industry.